Regional Weather Roundup
Issued by NWS

Home | Current Version | Previous Version | Graphics & Text | Print | Product List | Glossary On
Versions: 1 2 3 4 5 6 7 8 9 10 11 12 13 14 15 16 17 18 19 20 21 22 23 24 25 26 27 28 29 30 31 32 33 34 35 36 37 38 39 40 41 42 43 44 45 46 47 48 49 50
275
ASUS43 KDMX 220001
RWRIA

WEATHER ROUNDUP FOR IOWA
NATIONAL WEATHER SERVICE DES MOINES IA
700 PM CDT SAT APR 21 2018

NOTE: "FAIR" INDICATES FEW OR NO CLOUDS BELOW 12,000 FEET WITH NO
SIGNIFICANT WEATHER AND/OR OBSTRUCTIONS TO VISIBILITY.

* - THESE STATIONS ARE NOT NWS STATIONS...THUS NOT UNDER NWS
QUALITY CONTROL.  THEY ALSO DO NOT REPORT WEATHER SUCH
AS PRECIPITATION OR FOG.

IAZ001>003-012>014-020>022-031>034-043>046-220100-
   NORTHWEST IOWA

CITY           SKY/WX    TMP DP  RH WIND       PRES   REMARKS
CARROLL *      CLOUDY    52  34  50 E6        30.27S
CHEROKEE *     CLOUDY    47  38  69 E8        30.29S
DENISON *      CLOUDY    52  28  40 E5        30.28S
LE MARS *      CLOUDY    52  37  58 E9        30.28S
ORANGE CITY *  CLOUDY    52  39  62 E9        30.29S
SHELDON *      CLOUDY    48  39  71 E10       30.29R
SIOUX CITY     CLOUDY    53  29  39 E9        30.25F
6HR MIN TEMP:  49; 6HR MAX TEMP:  56;

SPENCER        CLOUDY    43  35  73 E7        30.31R
6HR MIN TEMP:  43; 6HR MAX TEMP:  51;

STORM LAKE *   CLOUDY    46  41  81 NE10      30.28S
$$

IAZ055>058-069>071-079>083-090>094-220100-
   SOUTHWEST IOWA

CITY           SKY/WX    TMP DP  RH WIND       PRES   REMARKS
ATLANTIC *     CLOUDY    52  32  46 NE7       30.24R
AUDUBON *      CLOUDY    52  28  40 CALM      30.26F
CLARINDA *     CLOUDY    57  28  33 E8        30.24R
COUNCIL BLFS * CLOUDY    52  36  54 MISG      30.23S
CRESTON *      CLOUDY    55  27  33 E14       30.23S
HARLAN  *      CLOUDY    52  32  46 NE9       30.28S
LAMONI         CLOUDY    56  29  35 NE8       30.20S
6HR MIN TEMP:  55; 6HR MAX TEMP:  57;

RED OAK *      CLOUDY    57  25  28 E13G20    30.22R
SHENANDOAH *   CLOUDY    57  27  30 E13       30.23R
$$

IAZ047>049-059>061-072>074-084-220100-
   CENTRAL IOWA

CITY           SKY/WX    TMP DP  RH WIND       PRES   REMARKS
AMES           CLOUDY    56  28  34 E9        30.27S
6HR MIN TEMP:  55; 6HR MAX TEMP:  59;

ANKENY *       CLOUDY    55  27  33 SE9       30.27S
BOONE *        CLOUDY    54  34  47 E8        30.26S
CHARITON *     CLOUDY    57  27  30 E12       30.24R
DES MOINES     CLOUDY    57  24  28 E10       30.26S
6HR MIN TEMP:  55; 6HR MAX TEMP:  58;

GRINNELL*      CLOUDY    54  29  39 E12       30.29R
KNOXVILLE *    CLOUDY    57  23  26 E8        30.25R
MARSHALLTOWN   CLOUDY    55  32  41 E12       30.28S
6HR MIN TEMP:  55; 6HR MAX TEMP:  60;

NEWTON *       CLOUDY    55  27  33 E9        30.28R
PELLA *        CLOUDY    57  23  26 E5        30.27S
$$

IAZ004>006-015-016-023>025-035-036-220100-
   NORTH CENTRAL IOWA

CITY           SKY/WX    TMP DP  RH WIND       PRES   REMARKS
ALGONA *       CLOUDY    46  36  66 NE10      30.31S
CLARION *      CLOUDY    55  36  47 E12       30.29S
ESTHERVILLE    CLOUDY    38  33  82 NE5       30.31R WCI  34
6HR MIN TEMP:  38; 6HR MAX TEMP:  42;

FORT DODGE *   CLOUDY    57  25  29 SE9       30.28S
MASON CITY     CLOUDY    47  38  71 NE8       30.33R
6HR MIN TEMP:  46; 6HR MAX TEMP:  49;

FOREST CITY *  FAIR      48  34  57 E8        30.32R
WEBSTER CITY * CLOUDY    55  32  41 SE8       30.26S
IOWA FALLS *   FAIR      57  33  39 E12       30.30S
$$

IAZ007>011-017>019-026>030-037>042-050>054-066-220100-
   NORTHEAST IOWA

CITY           SKY/WX    TMP DP  RH WIND       PRES   REMARKS
CEDAR RAPIDS   FAIR      54  32  43 E14       30.30R
6HR MIN TEMP:  54; 6HR MAX TEMP:  62;

CHARLES CITY * FAIR      54  39  58 E9        30.33R
CLINTON *      FAIR      53  34  48 E14       30.33R
DECORAH *      CLOUDY    54  34  47 E6        30.33S
DUBUQUE        FAIR      52  32  46 NE8       30.33F
6HR MIN TEMP:  51; 6HR MAX TEMP:  56;

MONTICELLO *   MOCLDY    54  30  40 E3        30.32R
OELWEIN *      CLOUDY    54  34  47 E10       30.33R
WATERLOO       MOCLDY    54  36  50 E10       30.31R
6HR MIN TEMP:  54; 6HR MAX TEMP:  60;

$$

IAZ064-065-067-068-078-220100-
   EAST CENTRAL IOWA

CITY           SKY/WX    TMP DP  RH WIND       PRES   REMARKS
DAVENPORT      FAIR      55  29  36 E9        30.34R
6HR MIN TEMP:  54; 6HR MAX TEMP:  59;

IOWA CITY      CLOUDY    55  32  41 E12G20    30.31S
6HR MIN TEMP:  55; 6HR MAX TEMP:  61;

MT. PLEASANT * CLOUDY    55  28  35 E13       30.27R
MUSCATINE *    MOCLDY    57  27  30 E12G20    30.30S
QUAD CITIES    FAIR      57  32  38 E9        30.31R
6HR MIN TEMP:  57; 6HR MAX TEMP:  62;

$$

IAZ062-063-075>077-085>089-095>099-220100-
   SOUTHEAST IOWA

CITY           SKY/WX    TMP DP  RH WIND       PRES   REMARKS
BURLINGTON     CLOUDY    58  25  28 E14       30.26R
6HR MIN TEMP:  58; 6HR MAX TEMP:  63;

FAIRFIELD *    CLOUDY    57  27  30 NE9       30.25S
FORT MADISON * CLOUDY    59  28  31 E10       30.26S
KEOKUK *       CLOUDY    59  28  31 E14       30.25R
OSKALOOSA *    FAIR      57  23  27 E8        30.27R
CENTERVILLE *    N/A     57  28  33 E8        30.25R
OTTUMWA        CLOUDY    57  26  30 E8        30.26R
6HR MIN TEMP:  57; 6HR MAX TEMP:  61;

WASHINGTON *   CLOUDY    55  30  38 E12       30.29R
$$

ABBREVIATIONS USED IN REMARKS
   TC - TEMPERATURES IN CELSIUS
  WCI - WIND CHILL INDEX
   HX - HEAT INDEX
  VSB - VISIBILITY
$$





USA.gov is the U.S. government's official web portal to all federal, state and local government web resources and services.